DW7898 Mollet del Valles (Barcelona) ES current weather conditions

sailwx.info

Wind from 094 at 3 knots gusting 8

Air temperature 31.7° C
Dewpoint 20.9° C

Last reported at 2020-Aug-08 14:03 UTC.
Time now 2020-Aug-08 14:37 UTC

Location: N 41°32' E 002°13'.
View on Google Maps.

See reports from other nearby stations

  
Tides and Currents Weather Stations Pressure Air Temp Water Temp Dewpoint Dewpoint Depression Visibility Wind Speed Wind Dir Waves Ship Positions
date/time (UTC)wind fromknots sea level pressurealtimeterstation pressurevisibilityair tempwater tempwave heightnotes
2020-Aug-08 14:03 094 3 gusting 8 31.7
2020-Aug-08 13:53 121 3 gusting 9 31.7
2020-Aug-08 13:43 122 5 gusting 10 31.7
2020-Aug-08 13:33 130 6 gusting 11 31.7
2020-Aug-08 13:23 144 6 gusting 10 31.1
2020-Aug-08 13:13 124 6 gusting 11 31.1
2020-Aug-08 13:03 131 6 gusting 9 31.1
2020-Aug-08 12:53 130 5 gusting 12 30.6
2020-Aug-08 12:43 129 6 gusting 11 31.1
2020-Aug-08 12:33 135 6 gusting 11 30.6
2020-Aug-08 12:23 134 6 gusting 12 30.6
2020-Aug-08 12:14 127 5 gusting 10 31.1
2020-Aug-08 12:03 113 4 gusting 9 31.1
2020-Aug-08 11:53 157 3 gusting 9 31.7
2020-Aug-08 11:43 315 0 gusting 9 32.2
2020-Aug-08 11:34 217 5 gusting 8 31.7
2020-Aug-08 11:23 208 4 gusting 10 32.2
2020-Aug-08 11:13 279 2 gusting 6 31.7
2020-Aug-08 11:04 252 4 gusting 6 31.7
2020-Aug-08 10:53 271 0 gusting 3 31.1
2020-Aug-08 10:43 333 2 gusting 4 30.6
2020-Aug-08 10:33 306 0 gusting 3 30.6
2020-Aug-08 10:23 255 30.6
2020-Aug-08 10:13 336 0 gusting 3 30.0
2020-Aug-08 10:03 052 0 gusting 3 30.0
2020-Aug-08 09:53 056 0 gusting 4 29.4
2020-Aug-08 09:44 026 1 gusting 2 28.9
2020-Aug-08 09:33 004 1 gusting 4 28.9
2020-Aug-08 09:23 038 0 gusting 3 28.3
2020-Aug-08 09:14 346 0 gusting 2 27.8
2020-Aug-08 09:03 057 1 gusting 3 27.2
2020-Aug-08 08:53 016 26.7
2020-Aug-08 08:43 034 1 gusting 2 26.1
2020-Aug-08 08:33 023 2 gusting 3 25.6
2020-Aug-08 08:23 088 25.6
2020-Aug-08 08:13 072 1 gusting 2 25.0
2020-Aug-08 08:03 057 24.4
2020-Aug-08 07:53 035 0 gusting 1 24.4
2020-Aug-08 07:43 037 0 gusting 1 23.9
2020-Aug-08 07:23 306 0 gusting 0 22.8
2020-Aug-08 07:03 269 0 gusting 1 22.8
2020-Aug-08 06:53 269 0 gusting 1 22.8
2020-Aug-08 06:43 269 0 gusting 1 22.2
2020-Aug-08 06:35 269 22.2
2020-Aug-08 06:23 270 0 gusting 2 22.2
2020-Aug-08 06:13 085 22.2
2020-Aug-08 06:03 085 0 gusting 2 22.2
2020-Aug-08 05:53 086 1 gusting 3 22.2
2020-Aug-08 05:43 072 0 gusting 2 22.2
2020-Aug-08 05:33 240 21.7
2020-Aug-08 05:23 240 1 gusting 4 21.7
2020-Aug-08 05:13 015 21.7
2020-Aug-08 05:03 024 0 gusting 3 21.7
2020-Aug-08 04:53 354 0 gusting 2 21.7
2020-Aug-08 04:43 053 1 gusting 3 21.7
2020-Aug-08 04:33 038 0 gusting 3 21.7
2020-Aug-08 04:23 052 1 gusting 2 22.2
2020-Aug-08 04:13 041 21.7
2020-Aug-08 04:03 042 2 gusting 5 21.7
2020-Aug-08 03:53 030 2 gusting 4 21.7
2020-Aug-08 03:43 016 2 gusting 5 21.7
2020-Aug-08 03:33 009 2 gusting 4 22.2
2020-Aug-08 03:23 026 1 gusting 4 22.2
2020-Aug-08 03:13 22.2
2020-Aug-08 03:03 224 22.2
2020-Aug-08 02:53 224 0 gusting 3 22.2
2020-Aug-08 02:43 223 1 gusting 2 22.8
2020-Aug-08 02:33 204 1 gusting 2 23.3
2020-Aug-08 02:23 163 23.3
2020-Aug-08 02:13 164 23.3
2020-Aug-08 02:03 228 23.3
2020-Aug-08 01:53 224 1 gusting 2 23.9
2020-Aug-08 01:43 224 23.9
2020-Aug-08 01:33 224 0 gusting 4 23.9
2020-Aug-08 01:23 117 2 gusting 3 23.9
2020-Aug-08 01:13 099 0 gusting 2 23.9
2020-Aug-08 01:03 219 23.9
2020-Aug-08 00:53 215 1 gusting 3 23.9
2020-Aug-08 00:43 232 1 gusting 3 23.9
2020-Aug-08 00:33 222 1 gusting 3 23.9
2020-Aug-08 00:23 213 1 gusting 3 23.9
2020-Aug-08 00:13 199 0 gusting 2 23.9
2020-Aug-08 00:03 201 0 gusting 1 23.9
2020-Aug-07 23:53 201 24.4
2020-Aug-07 23:43 201 0 gusting 3 24.4
2020-Aug-07 23:33 216 0 gusting 2 24.4
2020-Aug-07 23:23 222 24.4
2020-Aug-07 23:13 240 0 gusting 3 24.4
2020-Aug-07 23:03 261 1 gusting 2 25.0
2020-Aug-07 22:53 101 25.0
2020-Aug-07 22:43 119 1 gusting 2 25.0
2020-Aug-07 22:33 138 1 gusting 3 25.6
2020-Aug-07 22:24 127 0 gusting 1 25.6
2020-Aug-07 22:13 127 0 gusting 2 25.6
2020-Aug-07 22:03 153 0 gusting 4 25.6
2020-Aug-07 21:53 159 2 gusting 3 25.6
2020-Aug-07 21:43 127 0 gusting 1 25.6
2020-Aug-07 21:33 127 26.1
2020-Aug-07 21:23 127 0 gusting 3 26.1
2020-Aug-07 21:13 129 2 gusting 3 26.7
2020-Aug-07 21:03 126 1 gusting 3 26.7
2020-Aug-07 20:53 132 2 gusting 3 26.7
2020-Aug-07 20:43 119 0 gusting 3 27.2
2020-Aug-07 20:33 102 1 gusting 2 27.8
2020-Aug-07 20:24 149 1 gusting 2 28.3
2020-Aug-07 20:14 265 0 gusting 2 28.3
2020-Aug-07 20:03 267 2 gusting 3 28.9
2020-Aug-07 19:53 267 1 gusting 4 28.9
2020-Aug-07 19:44 266 2 gusting 5 28.9
2020-Aug-07 19:33 228 28.9
2020-Aug-07 19:23 248 0 gusting 4 28.9
2020-Aug-07 19:13 254 1 gusting 4 29.4
2020-Aug-07 19:03 262 1 gusting 4 29.4
2020-Aug-07 18:53 223 2 gusting 6 29.4
2020-Aug-07 18:43 214 4 gusting 8 30.0
2020-Aug-07 18:33 210 3 gusting 8 30.0
2020-Aug-07 18:23 226 3 gusting 6 30.6
2020-Aug-07 18:13 228 2 gusting 9 30.6
2020-Aug-07 18:03 193 1 gusting 5 31.1
2020-Aug-07 17:54 210 3 gusting 6 31.1
2020-Aug-07 17:43 216 4 gusting 8 31.1
2020-Aug-07 17:33 212 4 gusting 8 31.7
2020-Aug-07 17:24 212 4 gusting 7 31.7
2020-Aug-07 17:13 213 3 gusting 8 31.7
2020-Aug-07 17:03 197 4 gusting 10 31.7
2020-Aug-07 16:53 209 6 gusting 12 31.7
2020-Aug-07 16:43 204 4 gusting 8 32.2
2020-Aug-07 16:33 219 3 gusting 7 32.8
2020-Aug-07 16:23 259 1 gusting 7 32.2
2020-Aug-07 16:13 250 3 gusting 7 32.8
2020-Aug-07 16:03 246 2 gusting 8 32.8
2020-Aug-07 15:54 211 2 gusting 6 32.8
2020-Aug-07 15:43 153 2 gusting 10 32.8
2020-Aug-07 15:33 219 1 gusting 9 33.3
2020-Aug-07 15:23 185 3 gusting 9 32.8
2020-Aug-07 15:13 243 2 gusting 7 33.3
2020-Aug-07 15:03 218 2 gusting 10 33.3
2020-Aug-07 14:53 282 3 gusting 8 33.3
2020-Aug-07 14:43 278 3 gusting 9 33.3
2020-Aug-07 14:33 140 2 gusting 7 33.3
2020-Aug-07 14:23 142 2 gusting 13 33.3
2020-Aug-07 14:13 211 3 gusting 10 33.3
2020-Aug-07 14:03 252 3 gusting 7 33.3
2020-Aug-07 13:54 209 3 gusting 9 33.3
2020-Aug-07 13:43 186 5 gusting 11 33.3
2020-Aug-07 13:33 218 4 gusting 10 33.3
2020-Aug-07 13:23 213 5 gusting 10 33.3
2020-Aug-07 13:13 131 4 gusting 11 33.3
2020-Aug-07 13:03 091 5 gusting 8 33.3
2020-Aug-07 12:53 316 4 gusting 8 33.3
2020-Aug-07 12:43 188 2 gusting 10 32.8
2020-Aug-07 12:33 175 5 gusting 7 32.8
2020-Aug-07 12:24 179 4 gusting 8 32.2
2020-Aug-07 12:13 174 5 gusting 9 32.2
2020-Aug-07 12:03 169 3 gusting 10 32.2
2020-Aug-07 11:53 204 1 gusting 9 32.2
2020-Aug-07 11:43 196 2 gusting 8 32.2
2020-Aug-07 11:33 236 2 gusting 12 32.2
2020-Aug-07 11:24 115 2 gusting 7 32.2
2020-Aug-07 11:13 118 2 gusting 6 32.2
2020-Aug-07 11:04 136 0 gusting 7 32.2
2020-Aug-07 10:53 132 1 gusting 6 32.2
2020-Aug-07 10:43 087 0 gusting 7 32.2
2020-Aug-07 10:33 206 5 gusting 6 32.2
2020-Aug-07 10:23 185 2 gusting 6 31.7
2020-Aug-07 10:13 209 4 gusting 6 31.7
2020-Aug-07 10:03 244 1 gusting 5 31.7
2020-Aug-07 09:54 341 1 gusting 4 31.1
2020-Aug-07 09:43 083 0 gusting 3 31.1
2020-Aug-07 09:33 099 1 gusting 4 30.0
2020-Aug-07 09:23 202 1 gusting 2 29.4
2020-Aug-07 09:13 240 1 gusting 3 28.9
2020-Aug-07 09:03 281 0 gusting 5 28.3
2020-Aug-07 08:53 080 0 gusting 2 28.3
2020-Aug-07 08:43 192 0 gusting 1 27.2
2020-Aug-07 08:33 260 0 gusting 3 26.7
2020-Aug-07 08:23 247 2 gusting 4 26.1
2020-Aug-07 08:13 263 0 gusting 3 25.6
2020-Aug-07 08:03 231 0 gusting 2 25.0
2020-Aug-07 07:53 267 1 gusting 3 24.4
2020-Aug-07 07:43 265 2 gusting 4 23.9
2020-Aug-07 07:33 197 0 gusting 3 23.3
2020-Aug-07 07:23 209 1 gusting 3 23.3
2020-Aug-07 07:13 223 1 gusting 3 22.8
2020-Aug-07 07:03 208 1 gusting 3 22.2
2020-Aug-07 06:53 187 21.7
2020-Aug-07 06:43 186 1 gusting 3 21.7
2020-Aug-07 06:33 159 0 gusting 2 21.7
2020-Aug-07 06:23 148 0 gusting 1 21.7
2020-Aug-07 06:13 146 0 gusting 1 21.7
2020-Aug-07 06:03 092 21.7
2020-Aug-07 05:53 092 21.1
2020-Aug-07 05:43 092 21.1
2020-Aug-07 05:33 092 0 gusting 1 20.6
2020-Aug-07 05:23 092 0 gusting 2 20.6
2020-Aug-07 05:13 126 20.6
2020-Aug-07 05:03 126 20.6
2020-Aug-07 04:53 129 20.6
2020-Aug-07 04:43 129 20.6
2020-Aug-07 04:33 129 20.6
2020-Aug-07 04:23 129 20.6
2020-Aug-07 04:13 129 1 gusting 1 20.6
2020-Aug-07 04:03 129 20.6
2020-Aug-07 03:53 129 20.6
2020-Aug-07 03:43 129 21.1
2020-Aug-07 03:33 129 21.1
2020-Aug-07 03:23 129 21.1
2020-Aug-07 03:13 129 21.7
2020-Aug-07 03:03 129 21.7
2020-Aug-07 02:53 129 21.7
2020-Aug-07 02:43 129 21.7
2020-Aug-07 02:33 129 22.2
2020-Aug-07 02:23 129 22.2
2020-Aug-07 02:13 130 22.2
2020-Aug-07 02:03 130 0 gusting 1 22.2
2020-Aug-07 01:53 130 22.2
2020-Aug-07 01:43 130 22.2
2020-Aug-07 01:33 130 22.8
2020-Aug-07 01:23 130 22.8
2020-Aug-07 01:13 130 22.8
2020-Aug-07 01:03 130 0 gusting 2 22.8
2020-Aug-07 00:53 127 23.3
2020-Aug-07 00:43 127 0 gusting 2 23.3
2020-Aug-07 00:33 128 1 gusting 2 23.9
2020-Aug-07 00:23 127 0 gusting 2 23.9
2020-Aug-07 00:13 128 0 gusting 1 23.9
2020-Aug-07 00:03 128 23.9
2020-Aug-06 23:53 128 23.9
2020-Aug-06 23:43 128 23.9
2020-Aug-06 23:33 128 23.9
2020-Aug-06 23:23 128 0 gusting 2 23.9
2020-Aug-06 23:13 128 23.9
2020-Aug-06 23:03 128 0 gusting 2 23.9
2020-Aug-06 22:54 121 1 gusting 3 24.4
2020-Aug-06 22:43 108 24.4
2020-Aug-06 22:33 108 1 gusting 2 24.4
2020-Aug-06 22:23 109 0 gusting 2 24.4
2020-Aug-06 22:13 109 0 gusting 2 25.0
2020-Aug-06 22:03 096 0 gusting 2 25.0
2020-Aug-06 21:53 096 0 gusting 1 25.0
2020-Aug-06 21:43 096 25.6
2020-Aug-06 21:33 096 25.6
2020-Aug-06 21:23 096 25.6
2020-Aug-06 21:13 096 26.1
2020-Aug-06 21:03 096 26.1
2020-Aug-06 20:53 096 26.1
2020-Aug-06 20:43 096 0 gusting 3 26.1
2020-Aug-06 20:33 061 0 gusting 2 26.1
2020-Aug-06 20:23 061 0 gusting 2 26.7
2020-Aug-06 20:13 061 0 gusting 2 27.2
2020-Aug-06 20:03 052 0 gusting 2 27.2
2020-Aug-06 19:54 056 27.8
2020-Aug-06 19:43 104 0 gusting 2 27.8
2020-Aug-06 19:33 111 1 gusting 2 27.8
2020-Aug-06 19:23 088 0 gusting 2 27.8
2020-Aug-06 19:13 103 27.8
2020-Aug-06 19:03 180 1 gusting 3 28.3
2020-Aug-06 18:53 134 2 gusting 6 28.3
2020-Aug-06 18:43 149 1 gusting 6 28.9
2020-Aug-06 18:33 131 3 gusting 5 28.9
2020-Aug-06 18:23 129 3 gusting 5 28.9
2020-Aug-06 18:13 142 0 gusting 3 29.4
2020-Aug-06 18:03 146 2 gusting 4 29.4
2020-Aug-06 17:54 153 1 gusting 5 29.4
2020-Aug-06 17:43 126 0 gusting 5 29.4
2020-Aug-06 17:33 133 3 gusting 6 29.4
2020-Aug-06 17:23 113 4 gusting 7 29.4
2020-Aug-06 17:13 124 2 gusting 8 29.4
2020-Aug-06 17:03 142 3 gusting 7 30.0
2020-Aug-06 16:53 143 2 gusting 7 30.6
2020-Aug-06 16:43 138 1 gusting 7 30.6
2020-Aug-06 16:33 070 2 gusting 7 31.1
2020-Aug-06 16:23 155 2 gusting 7 30.6
2020-Aug-06 16:13 158 4 gusting 9 30.0
2020-Aug-06 16:03 094 5 gusting 11 30.0
2020-Aug-06 15:54 094 6 gusting 12 30.0
2020-Aug-06 15:43 126 6 gusting 10 30.0
2020-Aug-06 15:33 174 6 gusting 11 30.0
2020-Aug-06 15:24 130 7 gusting 12 30.0
2020-Aug-06 15:13 135 4 gusting 12 30.0
2020-Aug-06 15:03 179 5 gusting 10 29.4
2020-Aug-06 14:54 136 4 gusting 11 29.4
2020-Aug-06 14:43 136 6 gusting 12 29.4
2020-Aug-06 14:33 128 5 gusting 12 28.9
2020-Aug-06 14:23 086 4 gusting 12 29.4
2020-Aug-06 14:13 125 4 gusting 12 29.4
2020-Aug-06 14:04 117 6 gusting 13 28.9